BEL52TG LIMC-EBBR

Flight info

Callsign BEL52TG
Flight time 1h 9m
Altitude 32000
Route AOSTA DCT ORSUD DCT MOLUS DCT GILIR DCT PENDU DCT IXILU DCT GIVOR DCT SORAL DCT IBERA N853 DIK Y37 BATTY
Aircraft A319/M-SDE3FGHIRWY/LB1

Departure

Time 2026-05-07 18:15
Airport Milan Malpensa International Airport (LIMC)

Arrival

Time 2026-05-07 19:25
Airport Brussels Airport (EBBR)
Time Latitude Longitude Altitude Speed Heading
2026-05-07 17:39 45.62456 8.71768 737 ft 0 kts 259°
2026-05-07 18:03 45.62456 8.71771 736 ft 1 kts 258°
2026-05-07 18:04 45.62461 8.71795 736 ft 2 kts 250°
2026-05-07 18:04 45.62469 8.71822 735 ft 2 kts 237°
2026-05-07 18:04 45.62481 8.71844 736 ft 2 kts 220°
2026-05-07 18:04 45.62497 8.71859 736 ft 3 kts 200°
2026-05-07 18:05 45.62516 8.71865 735 ft 3 kts 178°
2026-05-07 18:05 45.62528 8.71864 735 ft 0 kts 167°
2026-05-07 18:06 45.62514 8.71868 734 ft 5 kts 168°
2026-05-07 18:07 45.62465 8.71883 737 ft 10 kts 170°
2026-05-07 18:07 45.62364 8.71910 735 ft 17 kts 169°
2026-05-07 18:07 45.62244 8.71944 737 ft 18 kts 170°
2026-05-07 18:07 45.62112 8.71978 737 ft 21 kts 169°
2026-05-07 18:08 45.61964 8.72019 737 ft 22 kts 169°
2026-05-07 18:08 45.61812 8.72062 737 ft 22 kts 169°
2026-05-07 18:08 45.61656 8.72106 735 ft 23 kts 169°
2026-05-07 18:08 45.61502 8.72148 735 ft 22 kts 169°
2026-05-07 18:09 45.61347 8.72190 737 ft 23 kts 169°
2026-05-07 18:09 45.61189 8.72234 737 ft 23 kts 169°
2026-05-07 18:09 45.61053 8.72286 736 ft 17 kts 132°
2026-05-07 18:09 45.61049 8.72445 737 ft 17 kts 81°
2026-05-07 18:10 45.61071 8.72615 737 ft 18 kts 78°
2026-05-07 18:10 45.61092 8.72787 740 ft 17 kts 82°
2026-05-07 18:10 45.61115 8.72956 737 ft 18 kts 78°
2026-05-07 18:10 45.61142 8.73143 738 ft 20 kts 79°
2026-05-07 18:11 45.61150 8.73252 737 ft 0 kts 102°
2026-05-07 18:11 45.61149 8.73256 737 ft 2 kts 104°
2026-05-07 18:11 45.61149 8.73304 737 ft 8 kts 68°
2026-05-07 18:12 45.61219 8.73320 737 ft 13 kts 347°
2026-05-07 18:12 45.61318 8.73292 737 ft 15 kts 349°
2026-05-07 18:12 45.61423 8.73263 737 ft 16 kts 349°
2026-05-07 18:12 45.61541 8.73230 737 ft 18 kts 349°
2026-05-07 18:13 45.61610 8.73250 737 ft 15 kts 65°
2026-05-07 18:13 45.61623 8.73446 737 ft 15 kts 120°
2026-05-07 18:13 45.61586 8.73558 737 ft 12 kts 111°
2026-05-07 18:13 45.61585 8.73624 737 ft 1 kts 83°
2026-05-07 18:14 45.61589 8.73655 737 ft 6 kts 78°
2026-05-07 18:14 45.61600 8.73694 737 ft 7 kts 60°
2026-05-07 18:14 45.61645 8.73730 737 ft 9 kts 357°
2026-05-07 18:14 45.61851 8.73674 737 ft 68 kts 349°
2026-05-07 18:15 45.62566 8.73475 739 ft 138 kts 349°
2026-05-07 18:15 45.63655 8.73175 1044 ft 162 kts 349°
2026-05-07 18:15 45.64770 8.72885 1748 ft 165 kts 351°
2026-05-07 18:15 45.65912 8.72617 2422 ft 168 kts 351°
2026-05-07 18:16 45.67147 8.72484 2857 ft 189 kts 360°
2026-05-07 18:16 45.68538 8.72505 3246 ft 214 kts
2026-05-07 18:16 45.70110 8.72566 3750 ft 236 kts
2026-05-07 18:16 45.71783 8.72486 4605 ft 243 kts 346°
2026-05-07 18:17 45.73205 8.71224 5519 ft 246 kts 307°
2026-05-07 18:17 45.73795 8.68970 6463 ft 246 kts 270°
2026-05-07 18:17 45.73520 8.66574 7451 ft 245 kts 252°
2026-05-07 18:17 45.72933 8.64275 8459 ft 246 kts 248°
2026-05-07 18:18 45.72263 8.61999 9412 ft 250 kts 248°
2026-05-07 18:18 45.71492 8.59755 10288 ft 257 kts 238°
2026-05-07 18:18 45.70404 8.57608 10695 ft 281 kts 235°
2026-05-07 18:18 45.69259 8.55195 11047 ft 306 kts 239°
2026-05-07 18:19 45.68426 8.52245 11468 ft 325 kts 259°
2026-05-07 18:19 45.68343 8.49046 12238 ft 331 kts 277°
2026-05-07 18:19 45.68700 8.45780 13150 ft 333 kts 278°
2026-05-07 18:19 45.69046 8.42500 14028 ft 335 kts 278°
2026-05-07 18:20 45.69381 8.39185 14796 ft 338 kts 278°
2026-05-07 18:20 45.69715 8.35838 15563 ft 341 kts 277°
2026-05-07 18:20 45.70054 8.32467 16326 ft 344 kts 278°
2026-05-07 18:20 45.70399 8.29062 17092 ft 347 kts 278°
2026-05-07 18:21 45.70751 8.25626 17849 ft 351 kts 278°
2026-05-07 18:21 45.71104 8.22156 18565 ft 354 kts 277°
2026-05-07 18:21 45.71461 8.18656 19238 ft 356 kts 277°
2026-05-07 18:21 45.71819 8.15125 19884 ft 359 kts 277°
2026-05-07 18:22 45.72177 8.11576 20534 ft 363 kts 277°
2026-05-07 18:22 45.72419 8.09152 20990 ft 365 kts 277°
2026-05-07 18:22 45.72897 8.04366 21861 ft 369 kts 277°
2026-05-07 18:22 45.73259 8.00714 22521 ft 371 kts 277°
2026-05-07 18:23 45.73621 7.97039 23151 ft 375 kts 277°
2026-05-07 18:23 45.73987 7.93332 23695 ft 378 kts 277°
2026-05-07 18:23 45.74358 7.89594 24226 ft 380 kts 277°
2026-05-07 18:23 45.74728 7.85837 24770 ft 382 kts 277°
2026-05-07 18:24 45.75100 7.82059 25280 ft 384 kts 277°
2026-05-07 18:24 45.75475 7.78249 25776 ft 387 kts 277°
2026-05-07 18:24 45.75846 7.74427 26285 ft 389 kts 276°
2026-05-07 18:24 45.76219 7.70576 26794 ft 391 kts 277°
2026-05-07 18:25 45.76594 7.66702 27267 ft 394 kts 276°
2026-05-07 18:25 45.76970 7.62810 27767 ft 395 kts 276°
2026-05-07 18:25 45.77346 7.58898 28284 ft 397 kts 276°
2026-05-07 18:25 45.77720 7.54965 28787 ft 399 kts 276°
2026-05-07 18:26 45.78093 7.51018 29256 ft 401 kts 276°
2026-05-07 18:26 45.78472 7.47035 29655 ft 404 kts 276°
2026-05-07 18:26 45.78857 7.43051 30055 ft 406 kts 277°
2026-05-07 18:26 45.79587 7.39111 30401 ft 412 kts 288°
2026-05-07 18:27 45.80854 7.35408 30760 ft 418 kts 298°
2026-05-07 18:27 45.82629 7.32075 31111 ft 425 kts 309°
2026-05-07 18:27 45.84848 7.29290 31487 ft 435 kts 319°
2026-05-07 18:27 45.87358 7.26753 31851 ft 437 kts 320°
2026-05-07 18:28 45.89840 7.24240 31956 ft 431 kts 320°
2026-05-07 18:28 45.92211 7.21840 31978 ft 414 kts 320°
2026-05-07 18:28 45.94536 7.19482 32000 ft 407 kts 319°
2026-05-07 18:29 45.99119 7.14797 32001 ft 402 kts 319°
2026-05-07 18:29 46.03676 7.10099 32007 ft 404 kts 319°
2026-05-07 18:30 46.08250 7.05387 32000 ft 404 kts 320°
2026-05-07 18:30 46.12840 7.00676 31995 ft 404 kts 319°
2026-05-07 18:31 46.17417 6.95961 32009 ft 403 kts 319°
2026-05-07 18:31 46.21976 6.91255 32017 ft 404 kts 320°
2026-05-07 18:32 46.26539 6.86531 32017 ft 403 kts 319°
2026-05-07 18:32 46.31071 6.81840 32024 ft 403 kts 319°
2026-05-07 18:33 46.35619 6.77117 32010 ft 402 kts 320°
2026-05-07 18:33 46.40160 6.72383 32023 ft 402 kts 320°
2026-05-07 18:34 46.44758 6.67741 32018 ft 405 kts 326°
2026-05-07 18:34 46.49833 6.64111 32020 ft 407 kts 329°
2026-05-07 18:35 46.54940 6.60534 32034 ft 407 kts 329°
2026-05-07 18:35 46.60038 6.56949 32027 ft 407 kts 329°
2026-05-07 18:36 46.65130 6.53345 32031 ft 406 kts 329°
2026-05-07 18:36 46.70215 6.49745 32037 ft 406 kts 329°
2026-05-07 18:37 46.75295 6.46133 32024 ft 406 kts 329°
2026-05-07 18:37 46.80347 6.42533 32047 ft 406 kts 329°
2026-05-07 18:38 46.85411 6.38923 32047 ft 406 kts 329°
2026-05-07 18:38 46.90491 6.35296 32050 ft 405 kts 329°
2026-05-07 18:39 46.95556 6.31669 32047 ft 405 kts 329°
2026-05-07 18:39 47.00613 6.28032 32043 ft 405 kts 329°
2026-05-07 18:40 47.05673 6.24394 32044 ft 405 kts 329°
2026-05-07 18:40 47.10730 6.20759 32040 ft 404 kts 329°
2026-05-07 18:41 47.15783 6.17121 32040 ft 404 kts 329°
2026-05-07 18:41 47.20825 6.13482 32033 ft 404 kts 329°
2026-05-07 18:42 47.25841 6.09854 32046 ft 404 kts 329°
2026-05-07 18:42 47.30889 6.06185 32038 ft 404 kts 329°
2026-05-07 18:43 47.36267 6.03592 32029 ft 414 kts 348°
2026-05-07 18:43 47.42078 6.03420 32032 ft 419 kts 356°
2026-05-07 18:44 47.47921 6.03556 32047 ft 420 kts 356°
2026-05-07 18:44 47.53762 6.03673 32042 ft 420 kts 356°
2026-05-07 18:45 47.59604 6.03797 32033 ft 420 kts 356°
2026-05-07 18:45 47.65441 6.03928 32046 ft 419 kts 357°
2026-05-07 18:46 47.71277 6.04063 32039 ft 419 kts 357°
2026-05-07 18:46 47.77049 6.05258 32031 ft 425 kts 11°
2026-05-07 18:47 47.82782 6.07422 32040 ft 425 kts 11°
2026-05-07 18:47 47.88521 6.09578 32051 ft 425 kts 11°
2026-05-07 18:48 47.94248 6.11744 32051 ft 425 kts 11°
2026-05-07 18:48 47.99985 6.13903 32050 ft 424 kts 11°
2026-05-07 18:49 48.05707 6.16054 32044 ft 424 kts 11°
2026-05-07 18:49 48.11426 6.18227 32056 ft 424 kts 11°
2026-05-07 18:50 48.17141 6.20416 32052 ft 423 kts 11°
2026-05-07 18:50 48.22818 6.22583 32048 ft 423 kts 11°
2026-05-07 18:51 48.28520 6.24761 32057 ft 423 kts 11°
2026-05-07 18:51 48.34218 6.26934 32044 ft 424 kts 11°
2026-05-07 18:51 48.37129 6.28043 32060 ft 438 kts 11°
2026-05-07 18:52 48.40123 6.29184 32060 ft 449 kts 11°
2026-05-07 18:52 48.43173 6.30356 32058 ft 460 kts 12°
2026-05-07 18:52 48.46312 6.31568 32059 ft 469 kts 12°
2026-05-07 18:53 48.52651 6.34025 32062 ft 473 kts 12°
2026-05-07 18:53 48.59037 6.36502 32062 ft 474 kts 12°
2026-05-07 18:54 48.65439 6.38912 32059 ft 473 kts
2026-05-07 18:54 48.71961 6.39741 32057 ft 470 kts
2026-05-07 18:55 48.78483 6.40400 32054 ft 470 kts
2026-05-07 18:55 48.85008 6.41064 32049 ft 470 kts
2026-05-07 18:56 48.91489 6.41727 32065 ft 470 kts
2026-05-07 18:56 48.98015 6.42399 32062 ft 469 kts
2026-05-07 18:57 49.04487 6.43058 31996 ft 455 kts
2026-05-07 18:57 49.07611 6.43385 31607 ft 444 kts
2026-05-07 18:57 49.10658 6.43490 31226 ft 432 kts 354°
2026-05-07 18:57 49.13586 6.42859 30864 ft 420 kts 345°
2026-05-07 18:58 49.16389 6.41720 30487 ft 414 kts 342°
2026-05-07 18:58 49.19163 6.40575 30146 ft 411 kts 342°
2026-05-07 18:58 49.21915 6.39444 30030 ft 409 kts 342°
2026-05-07 18:59 49.27435 6.37182 30068 ft 410 kts 343°
2026-05-07 18:59 49.32924 6.34924 30067 ft 414 kts 342°
2026-05-07 18:59 49.35733 6.33760 30074 ft 428 kts 343°
2026-05-07 19:00 49.38650 6.32549 30063 ft 440 kts 343°
2026-05-07 19:00 49.44639 6.30071 30061 ft 448 kts 343°
2026-05-07 19:01 49.49690 6.27980 30061 ft 449 kts 343°
2026-05-07 19:01 49.55724 6.25489 30057 ft 450 kts 343°
2026-05-07 19:02 49.61742 6.23030 30056 ft 450 kts 343°
2026-05-07 19:02 49.67792 6.20553 30057 ft 450 kts 343°
2026-05-07 19:03 49.73840 6.18070 30058 ft 450 kts 343°
2026-05-07 19:03 49.79890 6.15576 30062 ft 450 kts 343°
2026-05-07 19:04 49.85951 6.13070 30066 ft 451 kts 343°
2026-05-07 19:04 49.92049 6.10759 30069 ft 451 kts 345°
2026-05-07 19:05 49.98193 6.08674 30073 ft 452 kts 346°
2026-05-07 19:05 50.01265 6.07639 29779 ft 453 kts 345°
2026-05-07 19:05 50.04354 6.06583 29019 ft 456 kts 345°
2026-05-07 19:05 50.07459 6.05497 28454 ft 458 kts 345°
2026-05-07 19:06 50.10564 6.04394 27881 ft 457 kts 345°
2026-05-07 19:06 50.16722 6.02191 26749 ft 451 kts 345°
2026-05-07 19:06 50.19770 6.01100 26197 ft 447 kts 345°
2026-05-07 19:07 50.22796 6.00018 25667 ft 444 kts 345°
2026-05-07 19:07 50.25794 5.98947 25209 ft 440 kts 345°
2026-05-07 19:07 50.28738 5.97900 25043 ft 440 kts 345°
2026-05-07 19:07 50.31769 5.96824 25070 ft 441 kts 345°
2026-05-07 19:08 50.34766 5.95759 25067 ft 442 kts 345°
2026-05-07 19:08 50.37722 5.94704 25077 ft 442 kts 345°
2026-05-07 19:08 50.40721 5.93627 25077 ft 442 kts 345°
2026-05-07 19:08 50.43710 5.92559 24981 ft 435 kts 345°
2026-05-07 19:09 50.46602 5.91534 24817 ft 417 kts 345°
2026-05-07 19:09 50.49389 5.90549 24463 ft 406 kts 345°
2026-05-07 19:09 50.52059 5.89310 23964 ft 396 kts 334°
2026-05-07 19:09 50.54373 5.87098 23094 ft 386 kts 317°
2026-05-07 19:10 50.56151 5.84011 22188 ft 378 kts 303°
2026-05-07 19:10 50.57666 5.80649 21291 ft 375 kts 303°
2026-05-07 19:10 50.59163 5.77322 20545 ft 368 kts 304°
2026-05-07 19:10 50.60611 5.74108 20072 ft 354 kts 304°
2026-05-07 19:11 50.62019 5.70990 19397 ft 347 kts 304°
2026-05-07 19:11 50.63413 5.67907 18682 ft 343 kts 304°
2026-05-07 19:11 50.64792 5.64845 17921 ft 340 kts 304°
2026-05-07 19:11 50.66133 5.61859 17140 ft 336 kts 304°
2026-05-07 19:12 50.67480 5.58863 16382 ft 333 kts 304°
2026-05-07 19:12 50.68810 5.55896 15655 ft 330 kts 303°
2026-05-07 19:12 50.70131 5.52945 14949 ft 327 kts 303°
2026-05-07 19:12 50.71435 5.50027 14464 ft 318 kts 303°
2026-05-07 19:13 50.72675 5.47257 14153 ft 305 kts 303°
2026-05-07 19:13 50.73893 5.44537 13616 ft 300 kts 303°
2026-05-07 19:13 50.75090 5.41857 13008 ft 297 kts 303°
2026-05-07 19:13 50.76275 5.39198 12412 ft 294 kts 304°
2026-05-07 19:14 50.77446 5.36564 11812 ft 292 kts 304°
2026-05-07 19:14 50.78606 5.33951 11214 ft 289 kts 304°
2026-05-07 19:14 50.79757 5.31356 10631 ft 287 kts 304°
2026-05-07 19:14 50.80894 5.28787 10045 ft 285 kts 304°
2026-05-07 19:15 50.82025 5.26230 9401 ft 282 kts 304°
2026-05-07 19:15 50.83143 5.23698 8759 ft 280 kts 304°
2026-05-07 19:15 50.84253 5.21183 8122 ft 277 kts 304°
2026-05-07 19:15 50.85354 5.18694 7487 ft 275 kts 304°
2026-05-07 19:16 50.86448 5.16226 6857 ft 272 kts 304°
2026-05-07 19:16 50.87529 5.13783 6260 ft 269 kts 304°
2026-05-07 19:16 50.88526 5.11446 6093 ft 249 kts 303°
2026-05-07 19:16 50.89412 5.09260 6086 ft 225 kts 302°
2026-05-07 19:17 50.90234 5.07190 6086 ft 220 kts 302°
2026-05-07 19:17 50.91048 5.05133 5929 ft 218 kts 302°
2026-05-07 19:17 50.91852 5.03110 5513 ft 217 kts 302°
2026-05-07 19:17 50.92659 5.01087 5105 ft 216 kts 303°
2026-05-07 19:18 50.93276 4.98930 4684 ft 216 kts 286°
2026-05-07 19:18 50.93641 4.96625 4261 ft 215 kts 283°
2026-05-07 19:18 50.93972 4.94322 3877 ft 213 kts 283°
2026-05-07 19:18 50.94285 4.92121 3769 ft 196 kts 283°
2026-05-07 19:19 50.94579 4.90045 3462 ft 192 kts 283°
2026-05-07 19:19 50.94871 4.87983 3186 ft 191 kts 283°
2026-05-07 19:19 50.95160 4.85938 3023 ft 190 kts 283°
2026-05-07 19:19 50.95448 4.83898 3016 ft 190 kts 283°
2026-05-07 19:20 50.95737 4.81849 3013 ft 190 kts 283°
2026-05-07 19:20 50.95972 4.79792 3015 ft 195 kts 271°
2026-05-07 19:20 50.95699 4.77656 3023 ft 200 kts 249°
2026-05-07 19:20 50.95222 4.75583 3015 ft 200 kts 250°
2026-05-07 19:21 50.94746 4.73506 2936 ft 201 kts 250°
2026-05-07 19:21 50.94272 4.71428 2717 ft 197 kts 250°
2026-05-07 19:21 50.93814 4.69422 2471 ft 192 kts 250°
2026-05-07 19:21 50.93361 4.67445 2207 ft 189 kts 250°
2026-05-07 19:22 50.92915 4.65492 1951 ft 188 kts 250°
2026-05-07 19:22 50.92476 4.63577 1705 ft 187 kts 250°
2026-05-07 19:22 50.92046 4.61702 1455 ft 172 kts 250°
2026-05-07 19:22 50.91660 4.60016 1225 ft 151 kts 250°
2026-05-07 19:23 50.91323 4.58549 1024 ft 138 kts 250°
2026-05-07 19:23 50.91001 4.57149 838 ft 133 kts 250°
2026-05-07 19:23 50.90688 4.55787 663 ft 131 kts 250°
2026-05-07 19:23 50.90378 4.54436 489 ft 130 kts 250°
2026-05-07 19:24 50.90069 4.53092 304 ft 129 kts 250°
2026-05-07 19:24 50.89766 4.51782 174 ft 123 kts 252°
2026-05-07 19:24 50.89521 4.50715 175 ft 79 kts 250°
2026-05-07 19:24 50.89367 4.50053 177 ft 53 kts 250°
2026-05-07 19:25 50.89364 4.49685 174 ft 32 kts 301°
2026-05-07 19:25 50.89493 4.49413 164 ft 30 kts 307°
2026-05-07 19:25 50.89560 4.49272 158 ft 0 kts 307°
2026-05-07 19:26 50.89566 4.49260 158 ft 4 kts 307°
2026-05-07 19:26 50.89595 4.49199 155 ft 9 kts 307°
2026-05-07 19:26 50.89610 4.49167 154 ft 1 kts 308°
2026-05-07 19:26 50.89655 4.49152 152 ft 14 kts
2026-05-07 19:27 50.89793 4.49203 144 ft 26 kts 15°
2026-05-07 19:27 50.89989 4.49291 133 ft 31 kts 16°
2026-05-07 19:27 50.90146 4.49348 130 ft 19 kts 14°
2026-05-07 19:27 50.90279 4.49403 126 ft 19 kts 15°
2026-05-07 19:28 50.90388 4.49455 124 ft 15 kts 17°
2026-05-07 19:28 50.90409 4.49457 124 ft 3 kts 353°
2026-05-07 19:28 50.90417 4.49402 124 ft 5 kts 236°
2026-05-07 19:28 50.90354 4.49353 125 ft 12 kts 205°
2026-05-07 19:29 50.90306 4.49252 125 ft 12 kts 245°
2026-05-07 19:29 50.90270 4.49130 126 ft 13 kts 245°
2026-05-07 19:29 50.90233 4.48996 125 ft 14 kts 245°
2026-05-07 19:29 50.90197 4.48872 126 ft 8 kts 246°
2026-05-07 19:30 50.90231 4.48810 125 ft 10 kts 336°
2026-05-07 19:30 50.90297 4.48763 119 ft 6 kts 335°
2026-05-07 19:30 50.90321 4.48745 119 ft 0 kts 335°